Weather in Shestakovo

Russia / Irkutsk Oblast     56°29′25″N   103°57′39″E
temp.,
°C
wind,
m/s
gust,
m/s
humid.,
%
clouds,
%
prec.,
mm/h
press.,
hPa
HPBL,
m
15 may, sat
sat1523:00+5s235640 0.0 101141
02:00+3s2459100 0.0 101171
05:00+2wsw2869100 0.0 1012281
08:00+3w51095100 1.3 1013967
11:00+5w71057100 0.3 10141904
14:00+7wsw61049100 0.4 10131946
17:00+5sw61283100 0.2 10111155
20:00+4wsw61496100 1.1 10111258
16 may, sun
sun1623:00+5sw41294100 0.8 10091160
02:00+6w2895100 2.2 1008484
05:00+4nw3887100 0.3 1009521
08:00+4nw477586 0.3 1011951
11:00+7nw474661 0.0 10121687
14:00+10wnw4731100 0.0 10112109
17:00+10wnw4627100 0.0 10092114
20:00+7nnw2539100 0.0 1009178
17 may, mon
mon1723:00+4nnw1148100 0.0 100912
02:00+2nw1154100 0.0 100910
05:00−1w116237 0.0 101010
08:00+5nw24405 0.0 1010616
11:00+8nw46286 0.0 10092386
14:00+10nw5823100 0.0 10083086
17:00+10nw6922100 0.0 10083137
20:00+7nnw4832100 0.0 10101410
18 may, tue
tue1823:00+1nw114786 0.0 101210
02:00−1ssw1151100 0.0 101210
05:00−2ssw115945 0.0 101210
08:00+4w2438100 0.0 1011572
11:00+8wnw4828100 0.0 10082757
14:00+10w4727100 0.0 10062973
17:00+10wnw4630100 0.0 10042464
20:00+7w355199 0.2 1004237
19 may, wed
wed1923:00+1nne276093 0.1 1005129
02:000ene1357100 0.1 100675
05:00−3nnw11685 0.0 100710
08:00+4nnw244135 0.0 1007566
11:00+7nnw4627100 0.0 10062565
14:00+9nnw4722100 0.0 10043148
17:00+9nnw5621100 0.0 10042805
20:00+6n472837 0.0 1005636